User: anonymous   Login
Location: ?astrovice
(49.6513°N, 14.9287°E)
Time: 12:38:15
(UTC+00:00)
Language:

Tiangong - Orbit

View from above orbital plane
View from above orbital plane
View from above satellite
View from above satellite

Ground track
Ground track

The orbit data is extracted from the following two-line orbital elements,

1 48274U 21035A   21263.54429464 -.00003981  00000-0 -41033-4 0  9996
2 48274  41.4677  61.3002 0003625 290.2712 157.2865 15.61635443 22610
Epoch (UTC): 20 September 2021 13:03:47
Eccentricity: 0.0003625
inclination: 41.4677°
perigee height: 380 km
apogee height: 385 km
right ascension of ascending node: 61.3002°
argument of perigee: 290.2712°
revolutions per day: 15.61635443
mean anomaly at epoch: 157.2865°
orbit number at epoch: 2261

The dashed part of the orbit path shows where the satellite is in the earth's shadow,  

DLR